Погода в Скалате

Украина / Тернопольская область     49°25′44″N   25°58′58″E
темп.,
°C
ветер,
м/с
пор.,
м/с
влажн.,
%
обл.,
%
осадки,
мм/ч
давл.,
гПа
погр.,
м
17 апреля, сб
сб1700:00+1з5997100 0.2 1017551
03:00+1з51197100 0.5 1018401
06:00+1з51097100 0.6 1018391
09:00+2з4898100 0.8 1019348
12:00+3зсз3798100 0.0 1020310
15:00+6зсз348298 0.1 1020648
18:00+7сз2273100 0.0 1019881
21:00+5ссз2284100 0.0 102032
18 апреля, вс
вс1800:00+5св118691 0.0 102014
03:00+3с119021 0.0 102010
06:00+2с11905 0.0 101910
09:00+6з007764 0.0 1019262
12:00+10ссз1159100 0.0 1018939
15:00+12ссз2251100 0.0 10171414
18:00+12ссв2252100 0.0 10171331
21:00+8ссв2267100 0.0 101723
19 апреля, пн
пн1900:00+8в2384100 0.0 101751
03:00+7всв2491100 0.1 1017109
06:00+6всв3592100 0.0 1017199
09:00+7в3485100 0.1 1017452
12:00+7всв5583100 0.1 1016480
15:00+10всв557478 0.1 1016764
18:00+8всв457894 0.2 1015644
21:00+7всв368586 0.2 1015157
20 апреля, вт
вт2000:00+7св4886100 0.0 1014383
03:00+6всв4980100 0.0 1013538
06:00+4ссв378884 0.0 1012201
09:00+6с4888100 0.1 1012399
12:00+9ссв6660100 0.3 10101427
15:00+9с676197 0.6 10101311
18:00+9с676299 0.3 10101280
21:00+5ссз378498 0.3 1011159
21 апреля, ср
ср2100:00+5с3686100 0.1 1012422
03:00+5зсз2589100 0.3 1012313
06:00+5зсз3888100 0.3 1013307
09:00+7зсз4568100 0.3 1013726
12:00+9з5659100 0.2 10141583
15:00+11зсз5753100 0.7 10141880
18:00+11зсз465148 0.1 10141744
21:00+7зюз347398 0.1 101645